Weather Service Report


807 
ASUS45 KTFX 032104
RWRMT 
MONTANA HOURLY WEATHER ROUNDUP
NATIONAL WEATHER SERVICE GREAT FALLS MT
204 PM MST TUE MAR 3 2015

NOTE: "FAIR" INDICATES FEW OR NO CLOUDS BELOW 12000 FEET WITH NO
SIGNIFICANT WEATHER AND/OR OBSTRUCTIONS TO VISIBILITY.

* THESE STATIONS ARE NOT UNDER NWS QUALITY CONTROL. THEY DO NOT
   REPORT WEATHER SUCH AS PRECIPITATION OR FOG.

MTZ001>007-043-032200-
WEST OF THE DIVIDE
CITY           SKY/WX    TMP DP  RH WIND       PRES   REMARKS
KALISPELL      SUNNY     27   1  32 S9        30.09F WCI  18 
MISSOULA       SUNNY     25   1  35 NW10      30.10F WCI  15 
BUTTE          SUNNY     18  -2  41 CALM      29.92F 
MULLAN PASS    CLOUDY    18   9  68 NW8       29.93F WCI   8 
* ANACONDA     SUNNY     16  -2  45 N7         N/A   WCI   6 
* ESSEX        N/A       22  -1  36 N1G6       N/A   
* LINCOLN      N/A       22  -6  28 S9G17      N/A   WCI  12 
* LOOKOUT PASS N/A       22   5  48 NW9        N/A   WCI  12 
* POLSON       N/A       25   8  48 S3         N/A   
* SEELEY LAKE  N/A       25  -2  30 W4         N/A   
* THOMP F APT  SUNNY     19  -1  41 W8G17      N/A   WCI   9 
$$

MTZ008-052>055-032200-
SOUTHWEST MONTANA
CITY           SKY/WX    TMP DP  RH WIND       PRES   REMARKS
BOZEMAN        SUNNY     16   3  56 N6        30.02F WCI   7 
DILLON         SUNNY     16   1  51 SE5       29.93F WCI   8 
* W YELLOWSTON SUNNY     24  -4  29 W3         N/A   
* THREE FORKS  SUNNY     19  -6  32 N/A        N/A   
* BOULDER HILL N/A       14  -6  40 NE5        N/A   WCI   6 
* MONIDA PASS  N/A       13   4  67 W14        N/A   WCI  -2 
* RAYNOLDS PAS N/A        6   4  91 NW9        N/A   WCI  -8 
* WHITEHALL    N/A       20  -3  36 SE6G12     N/A   WCI  12 
* WISE RIVER   N/A       21  -1  38 SW5G11     N/A   WCI  14 
$$

MTZ009>010-012-014-046-048-049-054-032200-
EAST SLOPES AND CENTRAL MONTANA
CITY           SKY/WX    TMP DP  RH WIND       PRES   REMARKS
CUT BANK       SUNNY     18   1  47 W7        30.02F WCI   9 
GREAT FALLS    SUNNY     14   1  56 S5        30.04F WCI   6 
HELENA         SUNNY     19   0  43 E6        30.02F WCI  11 
* DEARBORN     N/A       17   4  56 NE2        N/A   
* EAST GLACIER N/A        4  -3  72 SE5        N/A   WCI  -6 
* MONARCH      N/A       10  -7  46 NW3        N/A   
* PENDROY      N/A       10  -1  61 SW9        N/A   WCI  -3 
* ROGERS PASS  N/A       14  -3  46 SE6G11     N/A   WCI   5 
* SWEET GRASS  N/A       11  -2  55 W9G14      N/A   WCI  -2 
$$

MTZ011-013-016-021-035-040-045-047-050-051-032200-
NORTH CENTRAL MONTANA
CITY           SKY/WX    TMP DP  RH WIND       PRES   REMARKS
HAVRE          SUNNY     19  -8  29 NW23      30.10F WCI   2 
LEWISTOWN      SUNNY     12  -4  48 NW13      30.01F WCI  -3 
* N BAR RANCH  SUNNY     10  -8  43 NW18      29.96F WCI  -8 
* CHESTER      N/A       15  -6  38 NW12G20    N/A   WCI   1 
* DENTON       N/A       14  -2  49 NW17G24    N/A   WCI  -2 
* GEYSER       N/A       12  -2  53 W15        N/A   WCI  -4 
* JUDITH GAP   N/A        8  -4  58 NW20G26    N/A   WCI -12 
* LOMA         N/A       20   1  43 SW8G17     N/A   WCI  10 
$$

MTZ017>020-022>027-061-062-032200-
NORTHEAST MONTANA
CITY           SKY/WX    TMP DP  RH WIND       PRES   REMARKS
GLASGOW        PTCLDY    18  -8  31 W23G29    30.05F WCI   1 
GLENDIVE       CLOUDY    14  -6  40 W22G36    30.03F WCI  -4 
JORDAN         SUNNY     16  -6  37 NW24G33   30.05F WCI  -2 
SIDNEY         PTCLDY    14  -6  40 W20G28    30.05F WCI  -4 
WOLF POINT     CLOUDY    16  -4  40 NW24G31   30.07F WCI  -2 
* BEAVER HILL  N/A       12  -6  44 W29G35     N/A   WCI  -9 
* CIRCLE       N/A       14  -1  51 NW17G25    N/A   WCI  -2 
* LINDSAY DVD  N/A        9  -5  52 W23G30     N/A   WCI -11 
* NAVAJO       N/A        4  -7  60 NW20G31    N/A   WCI -17 
* SACO         N/A       15  -8  35 NW21G32    N/A   WCI  -3 
$$

MTZ028>042-056>058-032200-
SOUTHCENTRAL AND SOUTHEAST MONTANA
CITY           SKY/WX    TMP DP  RH WIND       PRES   REMARKS
BAKER          PTSUNNY   16  -6  37 NW22G36   29.97F WCI  -2 
BILLINGS       SUNNY     18  -6  34 NW12      30.02F WCI   5 
LIVINGSTON     PTCLDY    18   0  45 NW9       29.96F WCI   7 
MILES CITY     PTSUNNY   18  -4  37 NW22G31   30.05F WCI   1 
* LAUREL APT   SUNNY     18  -8  31 W14G20     N/A   WCI   4 
* ROUNDUP APT  SUNNY     19 -13  23 NW20G26    N/A   WCI   3 
* ALZADA       N/A       14   0  53 W14G20     N/A   WCI  -1 
* HYSHAM       N/A       15  -4  42 W12G21     N/A   WCI   1 
* REED POINT   N/A       20   4  50 W10        N/A   WCI   9 
$$

REGIONAL REPORTS...DAKOTAS
CITY           SKY/WX    TMP DP  RH WIND       PRES   REMARKS
WILLISTON      CLOUDY    10   0  64 NW18      30.03F WCI  -8 
DICKINSON      PTSUNNY   12  -6  44 W26G35    29.93F WCI  -8 
BEACH          PTSUNNY   10  -4  53 NW26G31   29.98F WCI -11 
CROSBY         LGT SNOW   3  -8  60 NW25G38   30.01F WCI -20 
WATFORD CITY   SUNNY      9  -2  61 NW20G32   29.99F WCI -10 
BISMARCK       HAZE      12  -2  53 NW25G35   30.01S VSB 3    WCI  -8 
GRAND FORKS    PTCLDY    10  -2  58 NW25G33   29.90S WCI -11 
FARGO          LGT SNOW  12   0  58 NW25G32   29.92R WCI  -8 
BUFFALO SD     PTCLDY    16   0  49 NW29G40   29.89F WCI  -4 
RAPID CITY     CLOUDY    18   5  57 N23       29.96F WCI   1 
$$

REGIONAL REPORTS...WYOMING/IDAHO/WASHINGTON
CITY           SKY/WX    TMP DP  RH WIND       PRES   REMARKS
GILLETTE       PTSUNNY   12   1  61 NW13      29.93F WCI  -3 
SHERIDAN       SUNNY     12   0  58 NW10      29.99F WCI  -1 
CODY           SUNNY     10   0  64 NE9       29.91F WCI  -3 
YELLOWSTONE LA SUNNY     16  -8  33 VRB7      29.73F WCI   6 
SALMON         PTCLDY    30   3  31 N3        29.96F 
MULLAN PASS    CLOUDY    18   9  68 NW8       29.93S WCI   8 
SAND POINT     SUNNY     34  12  40 E8        30.14F WCI  27 
SPOKANE        SUNNY     34  14  44 CALM      30.14F 
$$

REGIONAL REPORTS...SASKATCHEWAN
CITY           SKY/WX    TMP DP  RH WIND       PRES   REMARKS
REGINA         LGT SNOW   1  -4  79 NW25      29.97F VSB 2    WCI -23 

$$


Return to Home page


Western Regional Climate Center, wrcc@dri.edu